Squaw Valley, USA 16 day weather forecast

Slopes altitude range 1890 m - 2760m

Number of lifts: 27 Pistes: 100km

In some cases the lift and piste totals shown are for the ski domain (e.g. Three Valleys) rather than individual resort (e.g. Courchevel)

Overview

The 16 day weather forecast is fully updated 4 times every day.

    • Sat 20 APR 2019
    • Sat 20
    • 4C 5C
    • Sun 21 APR 2019
    • Sun 21
    • 1C 2C
    • Mon 22 APR 2019
    • Mon 22
    • 1C 2C
    • Tue 23 APR 2019
    • Tue 23
    • 3C 5C
    • Wed 24 APR 2019
    • Wed 24
    • 5C 7C
    • Thu 25 APR 2019
    • Thu 25
    • 7C 9C
    • Fri 26 APR 2019
    • Fri 26
    • 6C 8C
    • Sat 27 APR 2019
    • Sat 27
    • 5C 6C
    • Sun 28 APR 2019
    • Sun 28
    • 4C 5C
    • Mon 29 APR 2019
    • Mon 29
    • 5C 6C
    • Tue 30 APR 2019
    • Tue 30
    • 6C 15C
    • Wed 01 MAY 2019
    • Wed 01
    • 1C 14C
    • Thu 02 MAY 2019
    • Thu 02
    • 3C 13C
    • Fri 03 MAY 2019
    • Fri 03
    • 6C 16C
    • Sat 04 MAY 2019
    • Sat 04
    • 4C 16C
    • Sun 05 MAY 2019
    • Sun 05
    • 0C 6C

Date:

Time Type 0°C level Temp Chill Snow Cloud Speed Gust Dir Press
3:00 3661m 7°C 7_7 0cm 89% 7mph 9mph 1010mB
6:00 3651m 5°C 5_7 0cm 82% 7mph 8mph 1011mB
9:00 3509m 4°C 4_7 0cm 63% 7mph 8mph 1011mB
12:00 3333m 5°C 5_7 0cm 72% 7mph 8mph 1010mB
15:00 3116m 5°C 5_8 0cm 97% 8mph 17mph 1010mB
18:00 2832m 7°C 7_15 0cm 99% 15mph 21mph 1010mB
21:00 2827m 6°C 6_18 0cm 51% 18mph 25mph 1010mB
0:00 2651m 5°C 5_15 0cm 56% 15mph 22mph 1010mB
3:00 2493m 2°C 2_7 0cm 18% 7mph 10mph 1012mB
6:00 2326m 0°C 0_4 0cm 16% 4mph 5mph 1015mB
9:00 2543m 1°C 1_3 0cm 91% 3mph 4mph 1016mB
12:00 2468m 2°C 2_3 0cm 90% 3mph 3mph 1018mB
15:00 2346m 2°C 2_4 0cm 7% 4mph 5mph 1019mB
18:00 2570m 6°C 6_7 0cm 19% 7mph 9mph 1018mB
21:00 2783m 5°C 5_9 0cm 3% 9mph 11mph 1017mB
0:00 2948m 5°C 5_9 0cm 1% 9mph 11mph 1017mB
3:00 2872m 4°C 4_5 0cm 0% 5mph 6mph 1018mB
6:00 2838m 2°C 2_2 0cm 0% 2mph 3mph 1020mB
9:00 2790m 1°C 1_3 0cm 60% 3mph 4mph 1020mB
12:00 2502m 2°C 2_2 0cm 56% 2mph 3mph 1021mB
15:00 3023m 4°C 4_4 0cm 0% 4mph 7mph 1022mB
18:00 3044m 8°C 8_9 0cm 0% 9mph 12mph 1021mB
21:00 3164m 8°C 8_7 0cm 0% 7mph 9mph 1019mB
0:00 3324m 8°C 8_9 0cm 0% 9mph 11mph 1018mB
3:00 3392m 6°C 6_5 0cm 1% 5mph 6mph 1019mB
6:00 3883m 4°C 4_5 0cm 1% 5mph 6mph 1021mB
9:00 4037m 4°C 4_4 0cm 1% 4mph 5mph 1021mB
12:00 4012m 5°C 5_3 0cm 1% 3mph 4mph 1021mB
15:00 4109m 6°C 6_4 0cm 0% 4mph 5mph 1021mB
18:00 4217m 10°C 10_7 0cm 0% 7mph 9mph 1020mB
21:00 4175m 10°C 10_8 0cm 17% 8mph 9mph 1018mB
0:00 4121m 10°C 10_7 0cm 16% 7mph 8mph 1017mB
3:00 4244m 9°C 9_3 0cm 2% 3mph 5mph 1018mB
6:00 4169m 7°C 7_2 0cm 2% 2mph 3mph 1020mB
9:00 4165m 6°C 6_2 0cm 12% 2mph 3mph 1019mB
12:00 4104m 7°C 7_2 0cm 17% 2mph 2mph 1019mB
15:00 4134m 8°C 8_2 0cm 10% 2mph 2mph 1019mB
18:00 4134m 15°C 15_3 0cm 5% 3mph 3mph 1018mB
21:00 4000m 15°C 15_3 0cm 0% 3mph 4mph 1015mB
0:00 4106m 14°C 14_7 0cm 0% 7mph 8mph 1014mB
3:00 4069m 11°C 11_5 0cm 0% 5mph 6mph 1015mB
6:00 4016m 9°C 9_3 0cm 0% 3mph 5mph 1016mB
9:00 4156m 7°C 7_3 0cm 0% 3mph 4mph 1015mB
12:00 4115m 9°C 9_4 0cm 0% 4mph 5mph 1016mB
15:00 4081m 10°C 10_3 0cm 0% 3mph 4mph 1016mB
18:00 4072m 16°C 16_3 0cm 0% 3mph 5mph 1015mB
21:00 4034m 15°C 15_9 0cm 1% 9mph 11mph 1012mB
0:00 4149m 13°C 13_11 0cm 39% 11mph 14mph 1011mB
3:00 4190m 10°C 10_6 0cm 90% 6mph 7mph 1013mB
6:00 4138m 8°C 8_6 0cm 82% 6mph 7mph 1014mB
9:00 3992m 7°C 7_6 0cm 76% 6mph 7mph 1014mB
12:00 3880m 8°C 8_5 0cm 77% 5mph 6mph 1014mB
15:00 3820m 8°C 8_4 0cm 76% 4mph 6mph 1014mB
18:00 3677m 14°C 14_14 0cm 78% 14mph 20mph 1013mB
21:00 3691m 14°C 14_19 0cm 28% 19mph 24mph 1011mB
0:00 3654m 13°C 13_19 0cm 30% 19mph 25mph 1011mB
3:00 3732m 8°C 8_8 0cm 17% 8mph 17mph 1013mB
6:00 3706m 6°C 6_7 0cm 47% 7mph 10mph 1016mB
9:00 3690m 5°C 5_6 0cm 76% 6mph 8mph 1016mB
12:00 3759m 6°C 6_6 0cm 81% 6mph 7mph 1016mB
15:00 3894m 7°C 7_5 0cm 78% 5mph 7mph 1016mB
18:00 3796m 13°C 13_9 0cm 82% 9mph 13mph 1015mB
21:00 3858m 13°C 13_15 0cm 47% 15mph 19mph 1014mB
0:00 4148m 12°C 12_14 0cm 40% 14mph 19mph 1013mB
3:00 4324m 8°C 8_8 0cm 68% 8mph 12mph 1015mB
6:00 4359m 5°C 5_7 0cm 77% 7mph 10mph 1017mB
9:00 4288m 5°C 5_7 0cm 90% 7mph 9mph 1017mB
12:00 4203m 5°C 5_7 0cm 90% 7mph 8mph 1017mB
15:00 4159m 7°C 7_6 0cm 94% 6mph 8mph 1017mB
18:00 4061m 12°C 12_7 0cm 94% 7mph 10mph 1016mB
21:00 3939m 12°C 12_11 0cm 91% 11mph 14mph 1014mB
0:00 4046m 12°C 12_10 0cm 89% 10mph 13mph 1013mB
3:00 4091m 8°C 8_5 0cm 98% 5mph 7mph 1014mB
6:00 4004m 6°C 6_3 0cm 98% 3mph 4mph 1015mB
9:00 3907m 5°C 5_3 0cm 65% 3mph 4mph 1015mB
12:00 3905m 6°C 6_4 0cm 59% 4mph 5mph 1014mB
15:00 3896m 8°C 8_4 0cm 82% 4mph 4mph 1014mB
18:00 3862m 13°C 13_5 0cm 86% 5mph 9mph 1013mB
21:00 3856m 13°C 13_12 0cm 93% 12mph 15mph 1012mB
0:00 3963m 12°C 12_12 0cm 95% 12mph 17mph 1011mB
Afternoon 0mm 0 3796m 15°C 15_2 0cm 100% 2mph 3mph 1013mB
Morning 0mm 0 3612m 6°C 6_9 0cm 100% 9mph 11mph 1010mB
Afternoon 0mm 0 3043m 14°C 14_5 0cm 14% 5mph 7mph 1015mB
Morning 0mm 0 3386m 1°C 1_8 0cm 28% 8mph 8mph 1011mB
Afternoon 0mm 0 3534m 13°C 13_5 0cm 0% 5mph 6mph 1014mB
Morning 0mm 0 3809m 3°C 3_4 0cm 23% 4mph 3mph 1009mB
Afternoon 0mm 0 3760m 16°C 16_1 0cm 77% 1mph 2mph 1010mB
Morning 0mm 0 3844m 6°C 6_10 0cm 43% 10mph 13mph 1005mB
Afternoon 0mm 0 3410m 16°C 16_6 0cm 100% 6mph 12mph 1007mB
Morning 0.119792mm 0 2714m 4°C 4_8 1cm 100% 8mph 12mph 1005mB
Afternoon 1.11458mm 0 2253m 6°C 6_6 9cm 100% 6mph 9mph 1007mB
Morning 0.505208mm 0.0625 2839m 0°C 0_6 0cm 100% 6mph 10mph 1007mB

16 day outlook at a glance

Forecast issued: 20/04/2019 07:14:32

Chat

Your comments and questions. In a resort? Let us know what it's like!


Characters left 250

For terms and conditions see Readers Comments on the Cookie and privacy policy page.